Wind_Speed
37 36 35 34 33 32 31 30 29 28 27 26 25 24 23 21 20 19 18 17 17 16 16 15 15 14 14 13 13 13 12 12 11 11 11 11 11 11 10 10 10 10 10
38 37 37 37 36 34 33 32 31 30 29 28 27 26 25 24 22 21 20 19 18 18 17 17 16 15 15 15 15 14 14 13 13 13 13 12 12 12 11 11 11 11 11
39 38 38 37 37 36 35 34 33 32 31 30 29 28 27 26 24 23 22 21 20 19 18 18 17 17 16 16 16 15 15 15 14 14 14 14 14 13 13 12 12 12 12
40 40 39 38 37 37 36 35 35 34 33 32 31 30 28 27 26 25 23 22 21 20 20 19 19 18 18 17 17 17 16 16 16 16 16 16 15 15 15 14 14 14 14
42 41 40 39 39 38 37 37 36 35 35 34 33 31 30 29 28 27 25 24 23 22 21 21 20 20 19 19 19 18 18 18 18 18 17 17 17 17 17 16 16 16 16
43 42 42 42 41 40 39 39 37 36 36 35 34 33 32 31 30 28 27 26 25 24 23 22 22 21 21 20 20 20 19 19 19 19 19 19 19 19 18 18 18 18 18
44 43 43 42 42 41 40 40 39 38 37 36 35 34 33 32 31 30 29 27 26 25 24 24 24 23 23 22 22 21 21 21 21 20 20 20 20 20 20 20 20 20 20
46 45 43 42 42 42 41 41 41 40 39 38 37 36 36 34 33 31 30 29 28 27 26 26 25 25 25 24 24 23 23 23 23 22 22 22 22 22 22 22 22 22 22
46 45 45 44 44 43 42 42 41 41 40 40 39 38 37 36 35 34 32 32 30 29 28 28 28 27 27 26 26 26 25 25 25 25 25 24 24 24 24 24 24 23 23
46 47 48 46 45 45 45 43 43 44 43 42 41 39 39 38 38 36 35 34 33 32 30 30 30 30 29 28 28 28 28 27 27 27 27 26 26 26 26 25 25 25 25
47 46 47 47 46 46 46 45 44 45 44 44 43 42 41 40 40 39 38 37 36 34 33 33 32 32 31 31 30 30 30 29 28 28 28 28 28 28 27 27 27 27 27
49 48 47 48 48 47 47 46 46 46 45 45 45 44 43 43 42 42 41 40 39 37 36 35 34 34 33 33 32 32 32 31 30 30 29 29 29 30 29 29 29 30 30
50 49 49 48 49 49 48 48 47 46 46 46 46 45 45 45 44 43 42 41 41 40 39 38 37 37 36 36 35 34 34 33 33 32 32 32 32 32 32 31 31 32 32
52 52 50 49 49 49 49 48 47 47 46 46 46 46 46 46 46 45 43 42 42 42 41 40 39 38 38 38 37 37 36 36 35 35 34 34 34 34 34 34 34 34 34
52 52 51 50 51 50 50 50 50 50 48 47 47 46 46 47 47 46 44 44 44 44 43 42 41 40 40 40 39 39 38 38 37 36 35 36 36 36 36 36 36 36 36
53 53 51 51 52 52 52 52 52 52 51 49 48 47 47 48 48 48 47 46 46 46 45 44 44 43 41 41 41 40 39 39 38 38 37 37 37 37 37 37 37 37 37
54 53 52 52 53 53 53 53 52 53 54 53 51 50 51 50 50 49 48 47 47 47 46 45 45 45 44 42 41 41 41 40 40 39 39 38 38 38 38 37 37 38 38
54 53 53 53 53 54 54 54 53 54 54 54 54 53 53 52 52 52 51 50 49 48 47 46 46 46 45 44 42 42 42 41 41 40 40 39 39 39 39 39 39 39 39
54 54 54 54 54 54 54 53 53 54 54 54 54 54 54 54 53 53 52 51 50 50 49 48 48 47 46 46 44 43 43 43 42 41 40 40 40 40 40 40 40 40 40
52 54 53 54 54 54 55 54 53 53 54 54 54 54 54 54 54 54 53 51 51 51 51 50 49 48 48 47 47 45 44 44 44 43 42 42 41 42 42 42 42 42 42
52 53 53 54 55 54 55 55 55 54 55 54 54 53 54 54 54 55 54 53 52 52 52 52 51 50 49 49 48 47 45 45 45 45 44 44 43 43 43 43 43 43 43
51 52 53 54 54 54 54 54 55 55 55 55 54 54 54 54 54 56 55 55 54 53 53 53 53 51 50 50 49 49 48 47 46 46 46 45 45 45 45 45 45 45 45
51 50 52 54 54 54 54 54 56 56 55 55 55 55 55 55 54 56 56 56 55 54 54 53 53 52 51 51 51 50 49 49 48 48 48 47 46 46 46 46 46 46 46
49 50 50 52 53 53 54 55 56 56 56 55 55 55 56 55 55 55 55 55 55 55 55 54 53 53 53 53 52 51 50 50 50 49 49 48 48 47 48 48 48 48 48
51 50 50 50 50 51 53 54 55 55 55 55 55 55 54 55 56 56 55 55 55 55 55 55 55 54 54 53 53 54 53 53 52 51 51 50 49 49 49 49 49 49 49
51 52 50 49 50 50 51 52 53 55 55 55 55 56 55 55 56 56 56 55 54 55 55 56 56 56 56 55 55 55 55 54 53 53 52 52 51 51 50 50 49 50 50
Wind_Direction
240 240 240 239 239 239 239 239 240 239 240 241 241 242 242 242 243 245 248 250 253 255 258 260 260 261 263 264 266 270 272 273 278 282 285 289 295 299 302 304 308 312 311
239 240 240 239 240 240 240 240 241 240 240 241 241 242 242 243 243 245 247 250 252 255 258 260 260 261 261 262 265 267 269 270 273 277 280 284 289 292 294 297 300 305 307
239 238 238 239 240 240 241 241 241 240 240 239 240 241 242 243 243 244 246 248 251 254 256 258 259 259 259 261 263 265 266 267 270 273 277 280 284 287 289 291 294 297 301
239 239 238 238 240 241 241 241 241 240 240 239 239 240 241 242 243 244 245 247 250 253 255 256 258 257 257 259 261 263 264 266 268 271 274 277 279 282 285 287 289 292 295
240 240 239 239 240 240 241 241 240 240 240 239 238 239 240 241 242 244 245 247 249 252 253 255 256 256 257 258 259 261 262 266 268 269 272 275 276 279 281 282 285 288 291
240 241 240 239 239 240 241 240 240 240 239 239 238 237 238 239 241 243 245 247 249 251 252 254 255 256 257 258 259 260 263 265 268 269 270 273 275 276 278 279 281 285 289
239 240 240 238 239 239 240 241 240 239 238 238 237 237 237 238 240 241 244 246 248 250 252 253 254 255 255 257 259 260 263 265 267 269 270 271 273 275 276 276 279 282 285
238 239 240 239 239 239 239 240 240 238 238 238 238 237 237 237 239 241 243 245 247 250 252 253 254 255 256 258 259 261 262 265 266 268 270 270 272 273 275 276 278 279 282
239 240 240 240 238 237 238 239 239 238 238 239 239 238 238 238 239 240 242 245 247 250 252 253 255 256 257 257 259 260 262 264 266 267 269 270 272 273 275 276 278 278 280
239 241 240 240 239 238 238 239 239 239 239 239 240 239 240 240 241 242 243 245 248 249 252 254 255 256 257 258 260 261 262 264 266 268 269 271 273 273 273 275 277 278 279
238 240 239 239 240 240 239 240 240 239 238 239 241 241 241 241 242 244 245 246 248 249 251 253 255 255 257 258 259 261 262 263 265 267 268 269 270 271 272 273 275 277 279
238 240 241 240 240 240 240 241 241 239 239 239 240 242 243 243 242 243 245 246 248 249 250 252 253 256 257 258 259 261 263 262 263 265 266 268 269 271 273 274 274 275 277
238 240 240 239 239 240 241 241 240 239 239 240 241 242 243 243 243 243 245 246 247 249 251 252 253 256 257 258 259 260 262 262 263 264 265 268 270 272 274 276 276 275 276
239 240 241 241 241 240 241 242 241 240 241 241 241 242 243 243 243 243 245 246 247 249 251 253 254 255 256 258 259 260 261 262 263 264 265 267 270 272 274 275 276 276 276
242 243 243 244 244 242 242 241 242 241 242 242 242 242 243 243 242 242 244 246 247 249 251 252 254 255 256 257 258 259 260 261 262 263 265 267 270 272 273 275 276 276 276
243 244 244 244 243 243 242 241 241 242 242 242 242 241 242 243 243 243 244 245 247 249 250 252 253 254 255 256 257 258 259 260 262 263 265 267 269 271 273 274 275 275 276
243 243 244 244 243 243 243 241 241 241 242 243 244 243 244 244 245 245 244 245 247 248 250 251 252 254 255 256 258 258 259 260 261 262 264 266 267 269 272 273 274 275 276
243 243 243 242 243 243 243 242 241 242 242 243 245 245 245 245 246 246 246 247 247 248 249 251 252 253 255 256 257 258 260 260 261 262 264 265 266 269 270 272 274 275 276
243 243 242 241 242 242 242 242 242 242 243 244 245 246 246 246 246 246 247 248 248 249 249 250 251 252 254 255 256 258 259 260 261 262 263 265 266 267 269 272 274 275 276
244 242 242 242 242 242 243 243 243 244 244 245 245 246 246 247 247 247 247 247 248 248 249 250 251 252 253 255 256 258 259 260 260 262 263 265 266 267 269 270 272 274 276
244 243 243 243 243 244 245 245 246 245 245 246 246 246 246 247 247 247 246 246 247 248 249 250 251 252 252 254 256 258 259 260 260 262 263 265 266 267 268 270 272 274 275
243 243 243 243 242 243 244 244 245 246 246 247 247 247 247 247 247 247 246 246 247 249 249 250 251 252 253 254 256 257 258 260 261 262 263 264 265 267 268 270 271 273 275
243 244 243 243 243 243 243 244 244 245 247 248 248 248 248 247 247 246 246 247 248 248 249 251 251 252 253 254 255 257 258 260 261 262 263 264 266 267 268 269 271 273 275
243 244 243 244 244 244 245 246 246 246 246 248 249 249 248 248 247 247 247 247 248 248 250 251 251 252 253 253 254 255 257 258 260 262 264 265 266 267 268 269 271 273 275
243 244 244 246 245 246 246 246 246 246 246 247 248 248 248 248 247 247 247 248 249 250 250 250 251 253 253 253 254 255 257 259 260 262 264 265 266 267 268 270 271 273 274
244 244 245 246 246 246 248 248 247 246 247 248 248 248 247 247 247 247 247 248 249 249 249 250 251 252 253 253 254 255 257 259 260 261 263 265 265 266 267 269 271 272 274
Height
5802 5805 5807 5810 5812 5815 5817 5819 5822 5825 5827 5829 5831 5833 5834 5836 5837 5838 5839 5840 5841 5841 5842 5842 5842 5843 5843 5843 5843 5843 5843 5842 5842 5842 5841 5840 5840 5839 5838 5837 5836 5834 5833
5793 5796 5799 5802 5805 5807 5810 5813 5815 5818 5821 5823 5826 5828 5829 5831 5832 5834 5835 5836 5837 5837 5838 5838 5839 5839 5839 5840 5840 5840 5840 5839 5839 5839 5838 5838 5837 5836 5835 5835 5833 5832 5831
5784 5787 5790 5793 5796 5799 5802 5805 5808 5811 5814 5817 5819 5822 5824 5826 5827 5829 5830 5831 5832 5833 5834 5834 5835 5835 5836 5836 5836 5836 5836 5836 5836 5836 5835 5835 5834 5834 5833 5832 5831 5830 5829
5775 5778 5781 5785 5788 5791 5794 5797 5800 5803 5806 5809 5812 5815 5818 5820 5822 5823 5825 5826 5827 5828 5829 5830 5831 5831 5832 5832 5832 5832 5832 5832 5832 5832 5832 5832 5831 5831 5830 5829 5828 5827 5826
5765 5768 5772 5776 5779 5782 5785 5788 5792 5795 5798 5802 5805 5808 5810 5813 5815 5817 5819 5821 5822 5823 5824 5825 5826 5826 5827 5828 5828 5828 5828 5828 5828 5828 5828 5828 5827 5827 5826 5826 5825 5824 5823
5755 5759 5762 5766 5769 5773 5776 5779 5783 5786 5790 5793 5797 5800 5803 5806 5809 5811 5813 5815 5816 5817 5819 5820 5821 5821 5822 5823 5823 5823 5824 5824 5824 5824 5824 5823 5823 5823 5822 5821 5821 5820 5819
5745 5748 5752 5756 5760 5764 5767 5771 5774 5777 5781 5785 5789 5792 5795 5798 5801 5804 5806 5808 5810 5812 5813 5814 5815 5816 5817 5817 5818 5818 5819 5819 5819 5819 5819 5819 5818 5818 5817 5817 5816 5815 5814
5734 5738 5742 5746 5750 5754 5758 5761 5764 5768 5772 5776 5780 5784 5787 5791 5794 5797 5799 5801 5803 5805 5806 5808 5809 5810 5811 5812 5812 5813 5813 5813 5813 5813 5813 5813 5813 5813 5812 5812 5811 5810 5809
5724 5728 5732 5736 5740 5744 5748 5752 5755 5759 5763 5767 5771 5775 5779 5783 5786 5789 5792 5794 5796 5798 5800 5801 5802 5804 5805 5805 5806 5807 5807 5808 5808 5808 5808 5807 5807 5807 5807 5806 5805 5805 5804
5713 5718 5722 5726 5730 5734 5739 5742 5746 5750 5754 5758 5762 5766 5771 5774 5778 5781 5784 5786 5788 5790 5792 5794 5795 5796 5798 5799 5800 5800 5801 5801 5801 5801 5801 5801 5801 5801 5800 5800 5799 5799 5798
5702 5706 5710 5715 5719 5724 5728 5732 5736 5740 5744 5748 5752 5757 5761 5765 5768 5772 5776 5778 5780 5782 5784 5786 5787 5788 5790 5791 5792 5793 5794 5794 5794 5794 5794 5794 5794 5794 5794 5793 5793 5792 5792
5692 5696 5700 5704 5709 5713 5717 5721 5725 5730 5734 5738 5742 5747 5751 5755 5759 5762 5766 5768 5771 5774 5776 5777 5779 5780 5782 5783 5784 5785 5786 5786 5787 5787 5787 5787 5787 5787 5786 5786 5786 5785 5785
5680 5684 5689 5693 5698 5702 5706 5710 5715 5719 5723 5728 5732 5736 5740 5744 5748 5751 5755 5758 5761 5764 5766 5768 5770 5772 5773 5774 5776 5777 5777 5778 5779 5779 5779 5779 5779 5779 5779 5778 5778 5778 5777
5669 5673 5678 5682 5686 5691 5695 5700 5704 5708 5712 5717 5721 5725 5729 5733 5737 5741 5744 5748 5751 5754 5756 5759 5760 5762 5763 5765 5766 5767 5768 5769 5770 5770 5770 5771 5771 5771 5770 5770 5770 5769 5769
5656 5661 5665 5670 5675 5679 5684 5688 5692 5697 5701 5706 5710 5714 5718 5722 5726 5729 5733 5737 5740 5743 5746 5749 5750 5752 5753 5755 5756 5757 5759 5760 5760 5761 5761 5761 5762 5762 5761 5761 5761 5760 5760
5644 5649 5653 5658 5663 5667 5672 5676 5681 5685 5690 5694 5699 5703 5707 5710 5714 5718 5721 5725 5728 5732 5735 5738 5740 5742 5743 5744 5746 5747 5749 5750 5751 5751 5752 5752 5752 5752 5752 5752 5751 5751 5750
5632 5636 5641 5645 5650 5654 5659 5664 5669 5673 5678 5682 5687 5691 5695 5698 5702 5706 5709 5713 5716 5720 5723 5727 5729 5730 5732 5734 5736 5737 5738 5739 5740 5741 5742 5742 5743 5743 5743 5742 5742 5741 5740
5619 5624 5628 5632 5636 5641 5646 5651 5656 5661 5666 5670 5674 5678 5682 5686 5690 5694 5697 5701 5704 5708 5711 5714 5717 5719 5721 5723 5725 5726 5728 5729 5730 5731 5732 5732 5733 5733 5733 5732 5732 5731 5730
5606 5610 5614 5619 5623 5628 5633 5638 5643 5648 5652 5657 5661 5665 5669 5673 5677 5681 5685 5688 5692 5695 5699 5702 5705 5708 5710 5711 5713 5715 5716 5718 5719 5720 5721 5722 5722 5722 5722 5722 5721 5721 5720
5592 5597 5601 5605 5610 5615 5620 5624 5629 5634 5639 5643 5648 5652 5656 5660 5664 5668 5672 5675 5679 5683 5686 5689 5693 5695 5698 5699 5701 5703 5705 5707 5708 5710 5710 5711 5711 5711 5711 5711 5711 5710 5709
5579 5583 5588 5592 5597 5602 5607 5611 5616 5620 5625 5629 5634 5638 5642 5646 5650 5654 5659 5662 5666 5669 5673 5676 5680 5683 5685 5687 5690 5692 5694 5695 5697 5698 5699 5700 5700 5700 5700 5700 5699 5698 5697
5566 5570 5575 5579 5583 5588 5593 5598 5602 5606 5611 5615 5619 5624 5628 5632 5636 5641 5645 5649 5653 5656 5660 5663 5667 5670 5673 5675 5677 5679 5681 5683 5686 5687 5687 5688 5688 5689 5689 5688 5688 5687 5686
5553 5557 5561 5565 5570 5574 5579 5583 5587 5592 5597 5601 5605 5610 5614 5618 5622 5627 5631 5635 5639 5642 5646 5650 5653 5657 5660 5663 5665 5667 5669 5671 5673 5674 5675 5676 5676 5677 5677 5676 5675 5675 5674
5540 5544 5548 5552 5556 5560 5564 5569 5573 5578 5583 5587 5591 5595 5600 5604 5608 5612 5617 5621 5625 5629 5634 5637 5641 5644 5646 5648 5651 5654 5655 5657 5660 5661 5662 5663 5664 5664 5664 5664 5663 5662 5661
5527 5531 5535 5539 5543 5547 5550 5554 5558 5563 5568 5573 5577 5581 5585 5589 5594 5598 5603 5607 5612 5615 5618 5622 5626 5629 5631 5634 5637 5639 5641 5644 5646 5648 5648 5650 5651 5651 5651 5651 5650 5649 5648
5514 5518 5521 5525 5529 5533 5537 5540 5544 5549 5554 5559 5563 5567 5571 5575 5579 5582 5587 5592 5597 5601 5604 5607 5611 5614 5617 5620 5622 5625 5627 5629 5631 5634 5635 5636 5637 5637 5638 5638 5637 5635 5634